Val Marie Southeast, Saskatchewan

7:13 AM CST on June 27, 2017 (GMT -0600)
Val Marie Southeast

Weather History for CWVN - May, 2013

Change the Weather History Date:

Sunday, May 12, 2013

  Actual Average Record
Temperature  
Mean Temperature 60 °F -  
Max Temperature 86 °F - - ()
Min Temperature 35 °F - - ()
Degree Days  
Heating Degree Days 4    
Growing Degree Days 10 (Base 50)    
Moisture  
Dew Point 32 °F    
Average Humidity 32    
Maximum Humidity 65    
Minimum Humidity 11    
Precipitation  
Precipitation 0.00 in - - ()
Sea Level Pressure  
Sea Level Pressure 29.90 in    
Wind  
Wind Speed 9 mph ()    
Max Wind Speed 21 mph    
Max Gust Speed 28 mph    
T = Trace of Precipitation, MM = Missing Value Source: Averaged Metar Reports

Daily Weather History Graph

Daily Weather History Graph

Search for Another Location

Airport or City:

Trip Planner

Search our weather history database for the weather conditions in past years. The results will help you decide how hot, cold, wet, or windy it might be!

Date:

Astronomy

May. 12, 2013 Rise Set
Actual Time 5:31 AM CST 8:42 PM CST
Civil Twilight 4:53 AM CST 9:20 PM CST
Nautical Twilight 4:04 AM CST 10:10 PM CST
Astronomical Twilight 3:01 AM CST 11:13 PM CST
Moon 7:26 AM CST (5/12) 11:14 PM CST (5/12)
Length of Visible Light 16h 26m
Length of Day
15h 11m
Waxing Crescent, 7% of the Moon is Illuminated
May 12
Waxing Crescent
May 17
First Quarter
May 24
Full
May 31
Last Quarter
Jun 8
New

Hourly Weather History & Observations

Time (CST) Temp. Windchill Dew Point Humidity Pressure Visibility Wind Dir Wind Speed Gust Speed Precip Events Conditions
12:00 AM 50 °F - 22 °F 21% 30.08 in - SE 12.7 mph - -  
12:00 AM 49.6 °F - 22.3 °F 34% 30.08 in - SE 12.7 mph - N/A   Unknown
1:00 AM 48.4 °F - 21.9 °F 35% 30.08 in - SSE 8.1 mph - N/A   Unknown
2:00 AM 42.4 °F 40.7 °F 23.4 °F 47% 30.07 in - East 3.5 mph - N/A   Unknown
3:00 AM 43 °F - 24 °F 34% 30.05 in - SE 2.3 mph - -  
3:00 AM 42.6 °F - 23.9 °F 48% 30.05 in - SE 2.3 mph - N/A   Unknown
4:00 AM 41.2 °F 37.3 °F 23.5 °F 50% 30.04 in - ESE 5.8 mph - N/A   Unknown
5:00 AM 36.3 °F 33.7 °F 25.0 °F 63% 30.03 in - ENE 3.5 mph - N/A   Unknown
6:00 AM 37 °F - 26 °F 54% 30.03 in - ENE 3.5 mph - -  
6:00 AM 37.0 °F 34.5 °F 26.4 °F 65% 30.03 in - ENE 3.5 mph - N/A   Unknown
7:00 AM 45.0 °F - 28.6 °F 53% 30.01 in - ESE 1.2 mph - N/A   Unknown
8:00 AM 53.2 °F - 24.6 °F 33% 30.00 in - South 8.1 mph - N/A   Unknown
9:00 AM 58 °F - 28 °F 20% 29.98 in - SSW 10.4 mph - -  
9:00 AM 58.1 °F - 27.9 °F 32% 29.98 in - SSW 10.4 mph - N/A   Unknown
10:00 AM 64.4 °F - 31.1 °F 29% 29.96 in - SSW 10.4 mph - N/A   Unknown
11:00 AM 66.7 °F - 33.1 °F 29% 29.94 in - SSW 11.5 mph - N/A   Unknown
12:00 PM 74 °F - 36 °F 15% 29.90 in - South 12.7 mph - -  
12:00 PM 73.6 °F - 36.5 °F 26% 29.90 in - South 12.7 mph - N/A   Unknown
1:00 PM 77.0 °F - 38.3 °F 25% 29.86 in - South 13.8 mph - N/A   Unknown
2:00 PM 83.7 °F - 38.7 °F 20% 29.83 in - West 20.7 mph 27.6 mph N/A   Unknown
3:00 PM 82 °F - 39 °F 12% 29.82 in - West 18.4 mph - -  
3:00 PM 82.4 °F - 38.8 °F 21% 29.82 in - West 18.4 mph 27.6 mph N/A   Unknown
4:00 PM 84.9 °F - 37.4 °F 18% 29.79 in - West 20.7 mph 27.6 mph N/A   Unknown
5:00 PM 84.0 °F - 38.5 °F 20% 29.77 in - West 17.3 mph 26.5 mph N/A   Unknown
6:00 PM 83 °F - 38 °F 11% 29.75 in - WNW 18.4 mph - -  
6:00 PM 82.6 °F - 37.8 °F 20% 29.75 in - WNW 18.4 mph 25.3 mph N/A   Unknown
7:00 PM 80.8 °F - 37.4 °F 21% 29.73 in - West 18.4 mph - N/A   Unknown
8:00 PM 75.7 °F - 36.9 °F 24% 29.71 in - West 13.8 mph - N/A   Unknown
9:00 PM 70 °F - 38 °F 20% 29.72 in - West 12.7 mph - -  
9:00 PM 70.3 °F - 37.6 °F 30% 29.72 in - West 12.7 mph - N/A   Unknown
10:00 PM 64.4 °F - 40.8 °F 42% 29.73 in - WSW 10.4 mph - N/A   Unknown
11:00 PM 60.3 °F - 42.1 °F 51% 29.72 in - WSW 8.1 mph - N/A   Unknown